[[{"header":{"parameterUnit":"m.s-1","parameterCategory":1,"la1":30.2991,"la2":30.254,"lo1":-89.0895,"lo2":-89.0444,"dy":0.0017,"dx":0.0017,"nx":28,"ny":28,"refTime":"2024-12-26T09:00:00:Z","depth":0,"parameterNumber":2,"parameterNumberName":"U-component_of_WINDS"},"data":[0,0,0,0,0,0,0,0,0,0,0,0,0,0,0,0,0,0,0,0,0,0,0,0,0,0,0,0,0,0,0,0,0,0,0,0,0,0,0,0,0,0,0,0,0,0,0,0,0,0,0,0,0,0,0,0,0,0,-1.9878,-1.9878,0,-1.9877,-1.9877,-1.9877,-1.9868,-1.9867,-1.9867,-1.9867,-1.9867,-1.9867,-1.9867,0,0,0,0,0,0,0,0,0,0,0,0,0,-1.9873,-1.9873,-1.9878,-1.9878,-1.9878,-1.9877,-1.9877,-1.9877,-1.9868,-1.9867,-1.9867,-1.9867,-1.9867,-1.9867,-1.9867,0,0,0,0,0,0,0,0,0,0,0,0,0,-1.9874,-1.9873,-1.9878,-1.9873,-1.9873,-1.9877,-1.9877,-1.9877,-1.9868,-1.9867,-1.9867,-1.9867,-1.9866,-1.9867,-1.9867,-1.9876,0,0,-1.9868,-1.9868,0,0,0,0,0,0,0,0,-1.9874,-1.9874,-1.9874,-1.9873,-1.9873,-1.9872,-1.9875,-1.9877,-1.9868,-1.987,-1.9867,-1.9866,-1.9869,-1.9869,-1.9869,-1.9876,-1.9876,-1.9868,-1.9868,-1.9868,-1.9869,0,0,0,0,0,0,0,-1.9874,-1.9874,-1.9877,-1.9874,-1.9873,-1.9871,-1.9871,-1.9875,-1.9871,-1.9869,-1.9869,-1.9869,-1.9868,-1.9869,-1.9869,-1.9876,-1.9868,-1.9868,-1.9869,-1.9869,-1.9891,-1.9891,0,0,0,0,0,0,-1.9874,-1.9874,-1.9877,-1.9877,-1.9872,-1.9872,-1.9871,-1.9873,-1.9871,-1.987,-1.9869,-1.9868,-1.9869,-1.9869,-1.9869,-1.988,-1.9868,-1.9869,-1.9869,-1.9891,-1.9891,-1.9892,0,0,0,0,0,0,-1.9874,-1.9874,-1.9878,-1.9876,-1.9876,-1.9872,-1.9874,-1.9873,-1.9873,-1.9871,-1.987,-1.987,-1.9869,-1.9869,-1.9875,-1.988,-1.9869,-1.9869,-1.989,-1.9891,-1.9891,-1.9901,0,0,0,0,0,0,-1.9874,-1.9874,-1.9877,-1.9876,-1.9876,-1.9882,-1.9874,-1.9873,-1.9874,-1.9873,-1.9872,-1.9871,-1.9868,-1.9874,-1.9875,-1.988,-1.9869,-1.989,-1.989,-1.9891,-1.99,-1.9902,-1.9903,0,0,0,0,0,-1.9874,-1.988,-1.9878,-1.9878,-1.9879,-1.9883,-1.9883,-1.9879,-1.9874,-1.9878,-1.9876,-1.9871,-1.9879,-1.9875,-1.9876,-1.9881,-1.9889,-1.989,-1.9891,-1.9899,-1.9901,-1.9903,0,0,0,0,0,0,-1.9883,-1.988,-1.9877,-1.9883,-1.9883,-1.9881,-1.9885,-1.9881,-1.9883,-1.9882,-1.9877,-1.9877,-1.9883,-1.9883,-1.9878,-1.989,-1.9884,-1.9885,-1.989,-1.9892,-1.9893,-1.9893,-1.987,0,0,0,0,0,-1.9885,-1.9888,-1.9885,-1.9891,-1.9891,-1.9888,-1.9889,-1.9887,-1.9887,-1.9887,-1.9885,-1.9886,-1.9889,-1.989,-1.9893,-1.9901,-1.99,-1.9905,-1.9906,-1.9908,-1.9908,-1.9913,-1.9915,-1.9895,-1.9895,-1.9895,0,0,-1.9891,-1.989,-1.9891,-1.9893,-1.9893,-1.9896,-1.9888,-1.9892,-1.9894,-1.9887,-1.9892,-1.9892,-1.9892,-1.9899,-1.9902,-1.9899,-1.9914,-1.9909,-1.991,-1.991,-1.9914,-1.9916,-1.9917,-1.9895,-1.9895,-1.9895,0,0,-1.9902,-1.9901,-1.9906,-1.9906,-1.9906,-1.9904,-1.9905,-1.9904,-1.9903,-1.9909,-1.9904,-1.9907,-1.9912,-1.9912,-1.9913,-1.9926,-1.9922,-1.9927,-1.9935,-1.9939,-1.9941,-1.9942,-1.9946,-1.9948,-1.9928,-1.9928,-1.9928,0,-1.9909,-1.9912,-1.9909,-1.9913,-1.9914,-1.9908,-1.9913,-1.9914,-1.9914,-1.9915,-1.9912,-1.9918,-1.9918,-1.9925,-1.9928,-1.9929,-1.9931,-1.9926,-1.9941,-1.9942,-1.9943,-1.9947,-1.9949,-1.9929,-1.9929,-1.9929,-1.9928,0,-1.9921,-1.9924,-1.9928,-1.9928,-1.993,-1.9934,-1.9932,-1.9934,-1.9932,-1.993,-1.9936,-1.9936,-1.9938,-1.994,-1.9938,-1.9947,-1.9945,-1.9941,-1.9935,-1.9946,-1.9949,-1.9951,-1.9929,-1.9929,-1.9929,-1.9929,0,0,-1.9936,-1.9935,-1.9937,-1.9937,-1.9937,-1.994,-1.9945,-1.9947,-1.9949,-1.995,-1.9954,-1.9958,-1.9955,-1.9956,-1.9954,-1.9958,-1.9968,-1.9954,-1.9954,-1.9956,-1.9979,-1.9981,-1.9983,-1.9966,-1.9967,-1.9967,-1.9979,0,-1.9946,-1.9953,-1.9951,-1.9958,-1.9961,-1.9957,-1.9961,-1.9962,-1.9961,-1.9964,-1.9963,-1.9967,-1.9962,-1.9963,-1.9967,-1.9966,-1.9973,-1.9966,-1.997,-1.997,-1.9968,-1.9985,-1.9987,-1.9998,-1.998,-1.998,-1.9981,0,-1.9959,-1.996,-1.9968,-1.9968,-1.9969,-1.9973,-1.9975,-1.9978,-1.9979,-1.9978,-1.998,-1.9978,-1.9983,-1.9977,-1.9985,-1.998,-1.9982,-1.9982,-1.9982,-1.9981,-1.9975,-1.9984,-2.0001,-2.0002,-1.9983,-1.9983,-1.9983,0,-1.9968,-1.9973,-1.9978,-1.9978,-1.9979,-1.9982,-1.9982,-1.9983,-1.9985,-1.9987,-1.9988,-1.9991,-1.9993,-1.9996,-1.9994,-1.999,-2.0002,-1.9996,-2.0001,-2.0001,-2.0003,-2.0002,-2.002,-2.0006,-2.0006,-2.0006,-2.0006,0,-1.9979,-1.9984,-1.9982,-1.9985,-1.999,-1.9988,-1.9994,-1.9994,-1.9995,-1.9999,-1.9996,-1.9999,-1.9997,-2.0001,-2.0,-2.0006,-2.0007,-2.0007,-2.0006,-2.0007,-2.0006,-2.0007,-2.0006,-2.0006,-2.0006,-2.0006,-2.0006,0,-1.999,-1.9989,-1.9994,-1.9995,-1.9995,-1.9999,-1.9999,-2.0003,-2.0002,-2.0007,-2.0008,-2.0007,-2.0012,-2.0011,-2.0015,-2.0015,-2.0022,-2.0022,-2.0022,-2.0021,-2.0026,-2.0025,-2.0043,-2.0045,-2.0031,-2.0031,-2.0031,0,-1.9997,-2.0,-2.0001,-2.0003,-2.0004,-2.0007,-2.0009,-2.0007,-2.001,-2.0012,-2.0015,-2.0019,-2.0022,-2.0029,-2.0029,-2.0033,-2.0031,-2.0038,-2.0032,-2.0032,-2.0031,-2.003,-2.003,-2.0038,-2.0038,-2.0038,-2.0039,0,-2.0008,-2.0008,-2.001,-2.0013,-2.0015,-2.0017,-2.0019,-2.0021,-2.002,-2.0023,-2.0027,-2.0029,-2.0034,-2.0038,-2.0042,-2.0043,-2.0041,-2.0041,-2.0042,-2.0041,-2.0041,-2.0041,-2.0024,-2.004,-2.004,-2.004,-2.004,-2.004,-2.0017,-2.002,-2.0021,-2.0024,-2.0026,-2.0028,-2.0031,-2.0031,-2.0034,-2.0038,-2.0037,-2.0042,-2.0044,-2.0049,-2.005,-2.0054,-2.0052,-2.0054,-2.0054,-2.0055,-2.0055,-2.0042,-2.0055,-2.0055,-2.0055,-2.0055,-2.0055,0,-2.0028,-2.0029,-2.0032,-2.0034,-2.0037,-2.0035,-2.0037,-2.004,-2.0044,-2.0046,-2.0049,-2.0054,-2.0058,-2.0059,-2.0064,-2.0067,-2.0066,-2.0068,-2.0067,-2.0067,-2.0057,-2.0055,-2.0068,-2.0068,-2.0068,-2.0068,-2.0068,-2.0068,-2.0034,-2.0038,-2.0038,-2.0044,-2.0045,-2.0049,-2.0051,-2.0053,-2.0055,-2.006,-2.0064,-2.0065,-2.0067,-2.0071,-2.0075,-2.0075,-2.0077,-2.0079,-2.0079,-2.0069,-2.0068,-2.0066,-2.0065,-2.008,-2.008,-2.0089,-2.0089,-2.0089]},{"header":{"parameterUnit":"m.s-1","parameterCategory":1,"la1":30.2991,"la2":30.254,"lo1":-89.0895,"lo2":-89.0444,"dy":0.0017,"dx":0.0017,"nx":28,"ny":28,"refTime":"2024-12-26T09:00:00:Z","depth":0,"parameterNumber":3,"parameterNumberName":"V-component_of_WINDS"},"data":[0,0,0,0,0,0,0,0,0,0,0,0,0,0,0,0,0,0,0,0,0,0,0,0,0,0,0,0,0,0,0,0,0,0,0,0,0,0,0,0,0,0,0,0,0,0,0,0,0,0,0,0,0,0,0,0,0,0,3.4018,3.4018,0,3.4051,3.4052,3.4052,3.4026,3.4025,3.4023,3.4022,3.4056,3.4058,3.4059,0,0,0,0,0,0,0,0,0,0,0,0,0,3.3929,3.3931,3.4017,3.4018,3.4018,3.4051,3.4052,3.4052,3.4026,3.4025,3.4023,3.4022,3.4055,3.4057,3.406,0,0,0,0,0,0,0,0,0,0,0,0,0,3.3966,3.3931,3.4017,3.4009,3.4009,3.4051,3.4052,3.4052,3.4026,3.4025,3.4023,3.4021,3.4054,3.4057,3.406,3.4111,0,0,3.4069,3.407,0,0,0,0,0,0,0,0,3.3963,3.3969,3.401,3.401,3.401,3.4033,3.4032,3.4072,3.4027,3.402,3.4022,3.402,3.4049,3.4052,3.4062,3.4113,3.4114,3.4069,3.4071,3.4072,3.4073,0,0,0,0,0,0,0,3.3961,3.3967,3.4031,3.4011,3.401,3.4003,3.4007,3.404,3.4043,3.402,3.4018,3.4023,3.4049,3.406,3.4063,3.4115,3.4069,3.4072,3.4073,3.4074,3.421,3.4212,0,0,0,0,0,0,3.3959,3.3965,3.403,3.4032,3.3982,3.4006,3.401,3.4027,3.4043,3.4044,3.4024,3.4021,3.4056,3.406,3.4064,3.4126,3.4072,3.4075,3.4076,3.4208,3.421,3.4212,0,0,0,0,0,0,3.3958,3.3965,3.4028,3.3998,3.4006,3.401,3.4029,3.4028,3.4039,3.4046,3.4046,3.4035,3.4054,3.406,3.41,3.4127,3.4076,3.4079,3.4206,3.4209,3.4211,3.4251,0,0,0,0,0,0,3.3955,3.3965,3.3985,3.3999,3.4007,3.4065,3.403,3.403,3.4045,3.4041,3.4056,3.4057,3.4054,3.4096,3.4103,3.413,3.4081,3.4203,3.4207,3.421,3.4247,3.4255,3.4261,0,0,0,0,0,3.3952,3.3995,3.3986,3.3994,3.4033,3.4066,3.4071,3.4067,3.4047,3.4067,3.4071,3.4056,3.4123,3.41,3.4108,3.4137,3.4202,3.4206,3.421,3.4244,3.4253,3.4261,0,0,0,0,0,0,3.3984,3.3996,3.3987,3.4035,3.405,3.4062,3.4087,3.4076,3.4096,3.4092,3.4085,3.4089,3.4131,3.4137,3.4112,3.4187,3.4159,3.4165,3.4182,3.4191,3.4198,3.4196,3.4083,0,0,0,0,0,3.3996,3.4023,3.4032,3.4074,3.4081,3.4083,3.4097,3.4093,3.4107,3.4113,3.412,3.4135,3.4159,3.4175,3.4197,3.4247,3.4251,3.4271,3.4278,3.4283,3.4289,3.4317,3.4326,3.4226,3.4226,3.4226,0,0,3.4023,3.4033,3.405,3.408,3.4091,3.4119,3.4088,3.4119,3.4139,3.4118,3.4157,3.4162,3.4178,3.4223,3.4244,3.423,3.4317,3.4289,3.4293,3.4296,3.4322,3.4332,3.434,3.4229,3.4228,3.4228,0,0,3.4085,3.4095,3.4131,3.4143,3.4159,3.416,3.4169,3.4182,3.4185,3.4224,3.4208,3.4232,3.4273,3.4285,3.4297,3.4363,3.4351,3.437,3.4407,3.4435,3.4442,3.4449,3.4474,3.4483,3.4376,3.4376,3.4376,0,3.4116,3.4158,3.4151,3.4183,3.4197,3.4179,3.4215,3.4226,3.4249,3.4259,3.4243,3.4295,3.4304,3.4352,3.4369,3.4378,3.4388,3.437,3.4442,3.4449,3.4455,3.4479,3.4488,3.4378,3.4378,3.4378,3.4377,0,3.4195,3.4224,3.4251,3.4275,3.4291,3.4325,3.4324,3.4341,3.4334,3.4336,3.4376,3.4386,3.4411,3.4421,3.4415,3.4469,3.446,3.4443,3.4415,3.4467,3.449,3.4499,3.4382,3.4381,3.438,3.4379,0,0,3.4281,3.4299,3.431,3.432,3.4337,3.4359,3.4391,3.4416,3.4432,3.4447,3.4475,3.451,3.4494,3.4507,3.4502,3.4525,3.4579,3.4505,3.4506,3.452,3.464,3.4655,3.4666,3.457,3.4571,3.4573,3.464,0,3.4345,3.4404,3.4398,3.4453,3.448,3.4462,3.4491,3.4504,3.4506,3.4529,3.4531,3.4557,3.4534,3.4542,3.4564,3.4568,3.4603,3.4562,3.4596,3.4598,3.4595,3.4677,3.4692,3.4755,3.4648,3.465,3.4651,0,3.4429,3.4449,3.4507,3.452,3.4531,3.4557,3.4579,3.46,3.4614,3.4614,3.4629,3.4619,3.4652,3.4621,3.4666,3.4639,3.4652,3.4655,3.4658,3.4663,3.4629,3.4686,3.4775,3.4785,3.4664,3.4663,3.4662,0,3.4488,3.4528,3.4569,3.4578,3.4593,3.4612,3.4619,3.4632,3.4647,3.4665,3.4675,3.4697,3.4709,3.4726,3.4722,3.47,3.4769,3.4738,3.4771,3.4771,3.4788,3.4787,3.4883,3.4793,3.4793,3.4793,3.4792,0,3.4562,3.4599,3.4596,3.4621,3.4661,3.4654,3.4693,3.4698,3.4709,3.4735,3.4719,3.4743,3.4736,3.4759,3.4756,3.4795,3.48,3.4801,3.4801,3.4804,3.4804,3.4814,3.4811,3.4795,3.4795,3.4794,3.4794,0,3.4636,3.4635,3.4678,3.4689,3.4692,3.4722,3.4731,3.4754,3.4754,3.4787,3.4794,3.4795,3.4822,3.4819,3.4849,3.4847,3.4895,3.4888,3.4891,3.489,3.4924,3.4921,3.5031,3.5045,3.4944,3.4945,3.4946,0,3.4685,3.4713,3.4726,3.4742,3.4751,3.4777,3.4792,3.4785,3.4802,3.482,3.4841,3.4866,3.4887,3.493,3.4934,3.4956,3.4951,3.4987,3.4954,3.4957,3.4954,3.4953,3.4956,3.4995,3.4996,3.4997,3.4998,0,3.4772,3.477,3.4793,3.4816,3.4834,3.4852,3.4867,3.4881,3.4876,3.4895,3.4922,3.4938,3.4969,3.4994,3.5016,3.5022,3.501,3.5008,3.5017,3.5022,3.5023,3.5025,3.4911,3.5006,3.5005,3.5004,3.5004,3.5004,3.4836,3.486,3.4874,3.49,3.4911,3.4926,3.4949,3.4952,3.4975,3.5,3.4993,3.5025,3.5037,3.5065,3.5074,3.5098,3.5085,3.5098,3.5101,3.5105,3.511,3.5018,3.5101,3.5101,3.5101,3.5101,3.5101,0,3.4924,3.4932,3.4955,3.4978,3.4999,3.4984,3.5,3.5018,3.5046,3.5059,3.5079,3.5111,3.5136,3.514,3.5164,3.5182,3.5177,3.5189,3.5189,3.5191,3.512,3.511,3.5193,3.5193,3.5193,3.5193,3.5193,3.5193,3.4972,3.5013,3.5012,3.5058,3.5065,3.5096,3.5107,3.5121,3.5131,3.5167,3.5188,3.519,3.52,3.5224,3.5246,3.5247,3.5257,3.5272,3.527,3.5204,3.5195,3.5187,3.5178,3.5273,3.5273,3.5339,3.534,3.534]}]]